#datint,netname,site,siteID,timestamp,IntT,BattV,AirT2,AirT,AirT_Avg,AirT_Max,AirT_Min,RH_Avg,RH_Max,RH_Min,EA_Avg,Td_Avg,Td_Max,Td_Min,WindS_Smp,WindS_Avg,WindD_Avg,WindD_SD,WindS_Max,ETo,ETr,SoilT4,SoilT8,SoilVWC8,SolarW_Avg,wetstate_Avg,wetT_Avg,Precip_accum,Precip_WPG,Precip_TB
15min,AgWx,beryljct,423,14AUG2020:00:00:00,69.0,12.92,57.1,56.8,60.7,63.2,56.8,54,68,46,1.073,43.9,46.5,41.9,1.732,2.3,59,38,5.4,0.00002,0.00007,69.1,69.0,9,0,.,.,13.45,0.00,0.00
15min,AgWx,beryljct,423,14AUG2020:00:15:00,66.4,12.9,58.5,59.6,58.6,59.7,56.9,62,68,57,1.010,45.5,46.7,44.4,3.31,3.0,141,31,5.0,0.00004,0.00009,68.9,69.0,9,0,.,.,13.45,0.01,0.00
15min,AgWx,beryljct,423,14AUG2020:00:30:00,64.6,12.9,62.0,61.5,60.0,62.3,58.3,55,62,47,0.909,44.0,45.5,42.0,1.14,2.1,202,41,4.1,-0.00000,0.00003,68.7,69.0,9,0,.,.,13.46,0.00,0.00
15min,AgWx,beryljct,423,14AUG2020:00:45:00,63.6,12.89,66.2,66.0,64.0,66.0,61.6,41,49,36,0.776,39.7,42.3,37.9,2.74,1.8,203,24,3.1,-0.00000,0.00004,68.5,69.0,9,0,.,.,13.46,0.00,0.00
15min,AgWx,beryljct,423,14AUG2020:01:00:00,63.6,12.88,68.4,67.4,66.8,67.5,66.0,35,37,34,0.769,38.1,39.2,37.7,3.88,3.7,183,12,5.5,0.00031,0.00048,68.2,69.0,9,0,.,.,13.46,0.00,0.00
15min,AgWx,beryljct,423,14AUG2020:01:15:00,64.0,12.87,70.6,70.7,69.8,71.1,67.6,31,33,30,0.781,38.0,38.4,37.7,4.406,3.2,179,9.2,4.6,0.00027,0.00045,68.0,68.9,9,0,.,.,13.45,0.00,0.00
15min,AgWx,beryljct,423,14AUG2020:01:30:00,64.4,12.86,66.2,65.7,63.9,70.9,59.9,45,53,30,0.892,41.4,43.2,38.1,2.148,1.5,175,24,4.5,-0.00004,-0.00003,67.8,68.9,9,0,.,.,13.45,0.00,0.00
15min,AgWx,beryljct,423,14AUG2020:01:45:00,63.6,12.86,59.8,57.3,59.3,65.7,56.0,55,66,41,0.961,43.2,44.9,41.3,0,1.4,179,18,2.8,-0.00008,-0.00010,67.6,68.8,9,0,.,.,13.46,0.01,0.00
15min,AgWx,beryljct,423,14AUG2020:02:00:00,62.2,12.85,56.2,57.5,57.5,58.6,55.7,61,67,56,0.982,43.9,45.1,42.8,3.705,0.7,153,25,4.7,-0.00019,-0.00027,67.4,68.8,9,0,.,.,13.46,0.00,0.00
15min,AgWx,beryljct,423,14AUG2020:02:15:00,60.9,12.84,56.2,57.6,57.2,58.7,55.3,59,67,51,0.908,42.8,44.6,40.6,4.669,1.3,164,19,4.7,-0.00010,-0.00013,67.1,68.8,9,0,.,.,13.46,0.00,0.00
15min,AgWx,beryljct,423,14AUG2020:02:30:00,60.3,12.84,57.2,58.1,59.0,60.2,56.8,54,58,50,0.952,42.3,43.8,40.4,3.683,5.2,170,17,7.4,0.00025,0.00036,66.9,68.7,9,0,.,.,13.46,0.00,0.00
15min,AgWx,beryljct,423,14AUG2020:02:45:00,59.9,12.83,62.9,60.9,58.5,60.9,57.0,56,60,50,0.917,42.7,43.6,41.6,7.19,6.1,169,8.2,8.2,0.00028,0.00039,66.7,68.6,9,0,.,.,13.46,0.00,0.00
15min,AgWx,beryljct,423,14AUG2020:03:00:00,60.2,12.81,59.8,60.6,63.6,66.5,60.6,43,50,38,0.861,40.8,42.1,39.7,5.108,6.7,167,4.8,7.6,0.00049,0.00067,66.5,68.6,9,0,.,.,13.46,0.00,0.00
15min,AgWx,beryljct,423,14AUG2020:03:15:00,60.3,12.81,58.5,60.0,59.7,61.2,58.2,48,52,45,0.820,40.1,40.8,39.1,3.639,4.4,172,6.8,5.9,0.00024,0.00036,66.3,68.5,9,0,.,.,13.46,0.00,0.00
15min,AgWx,beryljct,423,14AUG2020:03:30:00,59.7,12.8,57.0,57.2,59.1,60.5,56.8,49,58,45,0.886,40.2,42.2,39.2,3.42,4.2,155,7.3,6.1,0.00021,0.00032,66.1,68.5,9,0,.,.,13.46,0.00,0.00
15min,AgWx,beryljct,423,14AUG2020:03:45:00,58.9,12.79,53.9,54.2,55.2,59.8,52.3,59,67,48,0.846,41.1,42.2,39.8,5.13,4.7,190,15,6.1,0.00016,0.00024,65.9,68.4,9,0,.,.,13.46,0.00,0.00
15min,AgWx,beryljct,423,14AUG2020:04:00:00,57.6,12.79,51.3,51.5,52.3,54.2,51.3,65,68,60,0.863,40.8,41.4,40.2,3.749,3.3,182,9.0,5.0,0.00004,0.00008,65.7,68.3,9,0,.,.,13.46,0.00,0.00
15min,AgWx,beryljct,423,14AUG2020:04:15:00,56.6,12.78,52.2,51.9,51.8,52.3,51.4,63,67,60,0.814,39.7,40.7,38.8,2.543,3.8,182,8.7,6.2,0.00007,0.00012,65.6,68.2,9,0,.,.,13.46,0.00,0.00
15min,AgWx,beryljct,423,14AUG2020:04:30:00,55.7,12.77,51.2,51.3,52.1,53.4,51.0,62,68,57,0.872,39.6,41.0,38.5,0.877,3.2,197,5.3,4.3,0.00004,0.00008,65.4,68.2,9,0,.,.,13.46,0.00,0.00
15min,AgWx,beryljct,423,14AUG2020:04:45:00,54.9,12.76,49.0,49.4,50.6,51.4,49.4,67,73,61,0.832,40.2,42.1,38.5,3.595,2.9,162,24,6.0,-0.00001,0.00001,65.1,68.1,9,0,.,.,13.46,0.00,0.00
15min,AgWx,beryljct,423,14AUG2020:05:00:00,54.4,12.75,54.9,54.5,51.4,55.4,49.3,58,69,50,0.751,37.1,39.8,35.8,6.357,5.7,189,9.9,8.3,0.00020,0.00028,65.0,68.0,9,0,.,.,13.47,0.00,0.00
15min,AgWx,beryljct,423,14AUG2020:05:15:00,54.4,12.74,53.5,52.5,53.9,56.0,51.7,57,65,50,0.843,38.7,40.5,37.0,0,2.0,185,20,6.7,-0.00002,0.00000,64.8,67.9,9,0,.,.,13.46,0.00,0.00
15min,AgWx,beryljct,423,14AUG2020:05:30:00,54.0,12.74,48.3,48.3,50.4,52.8,48.3,66,73,61,0.840,39.4,40.3,38.4,3.529,4.5,334,33,8.1,0.00009,0.00014,64.6,67.9,9,0,.,.,13.46,0.00,0.00
15min,AgWx,beryljct,423,14AUG2020:05:45:00,53.4,12.73,58.8,54.9,50.8,54.9,48.2,67,74,56,0.824,40.1,40.8,39.3,0.307,2.9,243,49,5.1,0.00000,0.00003,64.4,67.8,9,0,.,.,13.46,0.00,0.00
15min,AgWx,beryljct,423,14AUG2020:06:00:00,53.2,12.71,47.8,48.8,53.0,56.5,48.8,62,76,52,0.898,40.2,41.8,38.9,1.535,2.5,133,24,4.8,-0.00000,0.00003,64.2,67.7,10,0,.,.,13.46,0.00,0.00
15min,AgWx,beryljct,423,14AUG2020:06:15:00,52.7,12.71,52.1,51.9,50.3,52.0,48.1,69,79,63,0.843,40.6,42.1,39.7,2.587,1.5,179,17,3.2,0.00012,0.00021,64.0,67.6,9,0,.,.,13.46,0.00,0.00
15min,AgWx,beryljct,423,14AUG2020:06:30:00,52.1,12.71,49.0,49.8,49.8,52.0,48.3,72,78,64,0.862,41.1,41.9,40.2,2.411,1.3,147,8.8,3.4,0.00010,0.00017,63.8,67.5,9,0,.,.,13.47,0.01,0.00
15min,AgWx,beryljct,423,14AUG2020:06:45:00,51.5,12.69,48.2,47.8,48.6,49.7,47.7,76,80,71,0.891,41.4,42.1,40.8,1.447,0.6,40,42,2.4,0.00005,0.00007,63.6,67.4,9,1,.,.,13.46,0.00,0.00
15min,AgWx,beryljct,423,14AUG2020:07:00:00,50.9,12.71,46.9,46.4,46.9,48.2,46.1,79,82,75,0.868,40.7,41.8,39.4,2.74,2.3,309,29,4.1,0.00015,0.00023,63.5,67.4,9,6,.,.,13.46,0.00,0.00
15min,AgWx,beryljct,423,14AUG2020:07:15:00,50.3,12.7,48.0,48.3,47.6,48.6,46.4,82,85,79,0.961,42.4,43.7,40.9,1.491,1.8,290,3.0,3.2,0.00019,0.00025,63.3,67.3,9,20,.,.,13.47,0.01,0.00
15min,AgWx,beryljct,423,14AUG2020:07:30:00,50.6,12.72,50.7,49.8,48.5,49.8,47.3,83,90,77,0.943,43.4,45.1,42.8,0.921,0.7,270,19,2.2,0.00040,0.00045,63.1,67.2,9,65,.,.,13.47,0.00,0.00
15min,AgWx,beryljct,423,14AUG2020:07:45:00,51.8,12.7,58.6,57.2,52.7,57.2,49.9,69,77,50,0.805,42.5,44.1,39.0,2.192,1.8,216,3.8,2.8,0.00070,0.00084,62.9,67.1,10,110,.,.,13.46,0.00,0.00
15min,AgWx,beryljct,423,14AUG2020:08:00:00,54.3,12.71,57.8,57.6,57.5,57.9,56.4,62,72,49,1.159,44.4,48.5,38.7,0,1.1,218,0.0,2.4,0.00095,0.00110,62.8,67.0,9,158,.,.,13.46,0.00,0.00
15min,AgWx,beryljct,423,14AUG2020:08:15:00,57.4,12.72,59.6,59.3,59.1,59.7,57.6,67,74,59,1.244,47.9,50.9,44.7,0.965,0.2,218,0.0,1.3,0.00115,0.00124,62.6,66.9,9,205,.,.,13.46,0.00,0.00
15min,AgWx,beryljct,423,14AUG2020:08:30:00,60.7,12.77,62.7,62.4,61.1,62.5,59.3,66,73,60,1.178,49.8,52.2,47.5,1.798,0.7,275,29,1.8,0.00150,0.00165,62.4,66.8,9,254,.,.,13.46,0.00,0.00
15min,AgWx,beryljct,423,14AUG2020:08:45:00,63.8,12.86,66.5,66.3,64.5,66.3,62.5,50,59,40,0.935,45.4,48.4,40.5,1.206,1.6,349,27,2.5,0.00196,0.00226,62.3,66.7,9,305,.,.,13.46,0.00,0.00
15min,AgWx,beryljct,423,14AUG2020:09:00:00,67.0,13,67.4,67.3,66.4,67.3,65.7,51,60,42,1.027,47.9,51.5,42.5,0,0.2,347,10,1.3,0.00218,0.00235,62.2,66.7,9,355,.,.,13.45,0.00,0.00
15min,AgWx,beryljct,423,14AUG2020:09:15:00,70.2,13.19,68.3,68.3,68.2,69.2,67.3,49,57,40,1.325,48.1,52.5,43.7,0.022,0.0,342,0.0,0.4,0.00250,0.00267,62.1,66.6,9,404,.,.,13.45,0.00,0.00
15min,AgWx,beryljct,423,14AUG2020:09:30:00,72.9,13.42,70.4,70.2,69.2,70.2,68.2,52,57,45,1.128,50.7,52.8,47.8,2.521,0.7,32,10,2.8,0.00293,0.00320,62.2,66.5,9,454,.,.,13.45,0.00,0.00
15min,AgWx,beryljct,423,14AUG2020:09:45:00,75.2,13.56,72.0,72.1,71.5,72.1,70.2,47,55,38,1.135,50.0,54.9,44.4,0.877,1.5,62,17,2.5,0.00338,0.00379,62.2,66.4,9,502,.,.,13.44,0.00,0.00
15min,AgWx,beryljct,423,14AUG2020:10:00:00,77.8,13.63,74.9,75.7,74.5,76.1,72.1,39,51,34,1.037,47.5,53.5,45.1,1.293,0.9,169,39,2.1,0.00374,0.00412,62.2,66.3,9,551,.,.,13.44,0.00,0.00
15min,AgWx,beryljct,423,14AUG2020:10:15:00,80.3,13.99,75.6,75.8,75.2,75.8,74.6,37,42,32,1.170,46.9,50.3,43.7,2.148,1.3,267,32,2.4,0.00412,0.00459,62.3,66.2,9,595,.,.,13.44,0.00,0.00
15min,AgWx,beryljct,423,14AUG2020:10:30:00,82.4,13.95,76.9,78.0,76.5,78.0,75.7,33,40,28,1.076,45.6,51.4,41.4,2.894,1.4,307,25,2.9,0.00449,0.00501,62.5,66.2,9,639,.,.,13.43,0.00,0.00
15min,AgWx,beryljct,423,14AUG2020:10:45:00,84.1,13.87,77.4,77.8,77.9,79.1,76.7,31,45,22,1.222,44.5,55.1,36.6,4.362,2.8,41,27,6.1,0.00502,0.00580,62.6,66.1,9,683,.,.,13.43,0.00,0.00
15min,AgWx,beryljct,423,14AUG2020:11:00:00,84.9,13.91,77.4,77.7,77.7,78.4,77.1,34,42,22,1.258,46.6,52.6,36.6,3.486,4.7,57,13,7.5,0.00550,0.00658,62.9,66.0,9,723,.,.,13.42,0.00,0.00
15min,AgWx,beryljct,423,14AUG2020:11:15:00,85.7,13.84,80.7,80.0,78.7,80.0,77.5,38,48,21,0.748,50.6,57.4,37.1,1.754,2.4,70,21,7.2,0.00551,0.00624,63.1,66.0,9,759,.,.,13.42,0.00,0.00
15min,AgWx,beryljct,423,14AUG2020:11:30:00,87.2,13.81,82.5,82.2,81.8,83.6,80.1,25,35,19,1.139,42.0,51.2,34.4,1.491,2.4,46,38,5.4,0.00590,0.00674,63.6,66.0,9,793,.,.,13.42,0.00,0.00
15min,AgWx,beryljct,423,14AUG2020:11:45:00,88.4,13.79,81.2,81.4,82.5,84.5,81.1,28,39,16,1.333,46.2,53.9,33.0,3.135,4.0,36,102,11.0,0.00637,0.00748,63.9,65.9,9,824,.,.,13.42,0.00,0.00
15min,AgWx,beryljct,423,14AUG2020:12:00:00,88.8,13.78,83.0,82.9,82.0,83.2,80.5,28,38,19,0.822,45.2,52.9,35.9,2.192,4.4,76,17,9.3,0.00660,0.00780,64.4,65.9,9,855,.,.,13.42,0.00,0.00
15min,AgWx,beryljct,423,14AUG2020:12:15:00,89.2,13.79,84.2,83.4,83.0,84.0,81.7,29,39,14,1.188,46.8,55.2,29.2,4.998,3.9,89,22,7.5,0.00675,0.00786,64.9,65.9,9,880,.,.,13.42,0.00,0.00
15min,AgWx,beryljct,423,14AUG2020:12:30:00,89.9,13.72,84.6,84.8,84.6,86.6,83.1,23,42,12,1.080,41.4,58.2,27.1,4.911,4.0,53,26,7.5,0.00702,0.00826,65.5,65.9,9,901,.,.,13.42,0.00,0.00
15min,AgWx,beryljct,423,14AUG2020:12:45:00,90.9,13.72,84.9,84.5,85.0,86.3,83.4,25,41,11,1.026,44.1,57.9,25.6,3.99,3.2,100,24,6.3,0.00703,0.00811,66.1,66.0,9,918,.,.,13.42,0.00,0.00
15min,AgWx,beryljct,423,14AUG2020:13:00:00,91.7,13.34,89.0,86.7,85.2,86.7,84.2,31,43,18,1.403,50.8,59.4,37.3,0,2.6,111,19,5.1,0.00703,0.00796,66.8,66.0,9,932,.,.,13.42,0.00,0.00
15min,AgWx,beryljct,423,14AUG2020:13:15:00,93.1,13.3,87.1,85.8,86.3,87.5,85.4,27,41,15,0.635,47.8,59.8,33.0,4.954,2.2,84,19,7.2,0.00709,0.00797,67.5,66.0,9,945,.,.,13.42,0.00,0.00
15min,AgWx,beryljct,423,14AUG2020:13:30:00,93.7,13.29,88.9,88.5,87.1,88.6,85.6,19,34,12,0.670,39.2,56.3,29.1,0.482,2.3,83,41,7.9,0.00715,0.00812,68.3,66.1,9,950,.,.,13.42,0.00,0.00
15min,AgWx,beryljct,423,14AUG2020:13:45:00,94.8,13.26,86.8,87.2,89.0,90.9,87.2,17,30,12,1.105,37.4,52.5,29.1,3.113,1.4,198,76,3.9,0.00703,0.00781,69.1,66.2,9,953,.,.,13.42,0.00,0.00
15min,AgWx,beryljct,423,14AUG2020:14:00:00,95.4,13.27,87.8,86.7,87.4,89.6,86.0,25,41,14,1.105,46.8,59.7,33.0,4.209,3.7,132,37,7.9,0.00744,0.00865,69.9,66.3,9,953,.,.,13.42,0.00,0.00
15min,AgWx,beryljct,423,14AUG2020:14:15:00,95.4,13.26,87.2,87.6,87.5,89.0,86.2,28,44,16,1.376,49.5,62.5,36.3,3.135,2.5,126,16,4.7,0.00722,0.00817,70.7,66.4,9,947,.,.,13.42,0.00,0.00
15min,AgWx,beryljct,423,14AUG2020:14:30:00,95.9,13.34,88.8,89.3,88.1,90.9,86.7,24,42,14,0.762,45.5,61.5,33.0,1.798,3.1,135,34,6.9,0.00723,0.00832,71.5,66.5,9,933,.,.,13.42,0.00,0.00
15min,AgWx,beryljct,423,14AUG2020:14:45:00,95.9,13.28,87.0,86.7,86.9,89.3,86.0,35,44,16,1.520,55.7,62.4,37.8,3.639,3.5,96,17,5.3,0.00712,0.00818,72.3,66.7,9,919,.,.,13.42,0.00,0.00
15min,AgWx,beryljct,423,14AUG2020:15:00:00,96.1,13.19,89.0,89.5,89.2,91.7,86.9,20,40,13,0.686,41.3,59.4,31.7,1.425,2.4,137,44,5.7,0.00694,0.00791,73.1,66.8,9,909,.,.,13.42,0.00,0.00
15min,AgWx,beryljct,423,14AUG2020:15:15:00,96.7,13.18,92.8,91.2,89.2,91.2,87.6,21,39,14,0.943,43.6,60.1,34.1,1.666,2.5,66,70,7.7,0.00679,0.00777,73.9,67.0,9,886,.,.,13.42,0.00,0.00
15min,AgWx,beryljct,423,14AUG2020:15:30:00,97.7,13.15,89.1,88.3,89.6,92.0,87.7,19,31,13,0.789,41.7,54.6,32.2,1.535,2.7,112,34,6.1,0.00661,0.00762,74.6,67.2,9,858,.,.,13.42,0.00,0.00
15min,AgWx,beryljct,423,14AUG2020:15:45:00,98.0,13.14,89.4,88.5,88.1,91.0,86.5,28,40,16,0.737,49.9,60.0,36.7,3.464,3.8,120,27,8.9,0.00658,0.00773,75.3,67.4,9,834,.,.,13.42,0.00,0.00
15min,AgWx,beryljct,423,14AUG2020:16:00:00,97.9,13.15,87.8,85.8,88.9,91.7,85.5,24,41,12,1.044,45.6,61.1,31.0,8.15,3.4,126,47,9.6,0.00630,0.00740,76.0,67.6,9,803,.,.,13.42,0.01,0.00
15min,AgWx,beryljct,423,14AUG2020:16:15:00,97.3,13.16,91.9,91.8,88.2,91.8,85.4,23,37,9.8,0.500,43.8,58.1,27.1,3.793,4.8,53,39,9.9,0.00610,0.00745,76.7,67.8,9,747,.,.,13.42,0.00,0.00
15min,AgWx,beryljct,423,14AUG2020:16:30:00,98.0,13.1,90.4,88.2,90.9,92.6,87.8,17,36,9.8,1.007,38.4,59.2,27.1,4.494,3.3,27,37,8.6,0.00564,0.00675,77.2,68.1,9,716,.,.,13.42,0.00,0.00
15min,AgWx,beryljct,423,14AUG2020:16:45:00,99.0,13.16,89.5,91.8,90.6,93.0,88.3,22,37,12,1.276,45.3,60.9,31.2,0,1.3,71,56,5.3,0.00505,0.00568,77.7,68.3,9,695,.,.,13.42,0.00,0.00
15min,AgWx,beryljct,423,14AUG2020:17:00:00,99.8,13.1,87.6,87.4,89.3,92.0,86.3,25,38,11,1.352,47.5,58.3,30.4,3.705,3.2,57,35,7.1,0.00511,0.00607,78.2,68.6,9,655,.,.,13.42,0.00,0.00
15min,AgWx,beryljct,423,14AUG2020:17:15:00,98.8,13.11,84.7,84.6,85.2,87.8,83.6,33,40,25,1.380,52.5,58.2,46.8,5.042,5.6,92,20,7.7,0.00488,0.00612,78.6,68.8,9,591,.,.,13.42,0.00,0.00
15min,AgWx,beryljct,423,14AUG2020:17:30:00,96.9,13.2,84.1,84.3,85.7,87.3,84.3,29,41,19,1.399,49.8,58.9,39.1,5.831,6.1,120,16,8.7,0.00485,0.00621,79.0,69.1,9,571,.,.,13.43,0.00,0.00
15min,AgWx,beryljct,423,14AUG2020:17:45:00,95.3,13.15,84.5,85.3,85.8,88.1,83.6,29,43,16,1.266,49.4,58.7,36.2,5.875,5.5,114,20,7.6,0.00442,0.00567,79.3,69.3,9,524,.,.,13.43,0.00,0.00
15min,AgWx,beryljct,423,14AUG2020:18:00:00,94.1,13.23,84.3,84.3,84.4,85.2,83.5,36,40,30,1.581,54.2,57.0,50.2,4.494,5.2,123,12,6.5,0.00391,0.00498,79.5,69.6,9,476,.,.,13.42,0.00,0.00
15min,AgWx,beryljct,423,14AUG2020:18:15:00,93.1,13.2,83.7,84.5,84.4,85.2,83.3,33,39,26,1.436,52.1,55.7,46.1,3.157,5.0,104,6.6,8.6,0.00354,0.00460,79.6,69.8,9,428,.,.,13.43,0.00,0.00
15min,AgWx,beryljct,423,14AUG2020:18:30:00,92.0,13.24,83.8,84.0,85.0,86.7,83.7,32,47,20,1.702,51.1,61.8,40.6,3.464,4.4,113,8.2,7.0,0.00273,0.00367,79.7,70.1,9,331,.,.,13.43,0.00,0.00
15min,AgWx,beryljct,423,14AUG2020:18:45:00,90.3,13.07,86.6,86.0,85.1,88.1,83.1,27,44,13,0.839,46.8,59.9,31.4,2.061,3.6,128,20,6.3,0.00101,0.00174,79.8,70.3,9,63,.,.,13.44,0.01,0.00
15min,AgWx,beryljct,423,14AUG2020:19:00:00,88.0,13.09,77.8,79.1,82.4,86.3,78.8,28,42,19,1.034,46.0,57.5,39.2,2.653,2.2,117,27,4.3,0.00074,0.00118,79.7,70.5,9,143,.,.,13.44,0.00,0.00
15min,AgWx,beryljct,423,14AUG2020:19:15:00,86.8,13.04,82.4,81.3,82.5,89.2,77.9,33,59,11,1.486,47.7,64.8,26.7,1.008,1.5,55,28,3.2,0.00063,0.00094,79.6,70.7,9,144,.,.,13.43,0.00,0.00
15min,AgWx,beryljct,423,14AUG2020:19:30:00,85.1,13.01,80.7,81.6,83.3,84.6,81.4,27,39,19,1.001,45.6,56.2,37.3,1.118,0.3,12,2.1,1.8,-0.00057,-0.00055,79.4,70.9,9,36,.,.,13.44,0.00,0.00
15min,AgWx,beryljct,423,14AUG2020:19:45:00,83.2,13.01,76.5,79.1,80.6,82.1,79.1,24,28,20,0.817,40.1,44.9,35.7,0.965,1.6,28,17,2.8,0.00002,0.00009,79.1,71.1,9,27,.,.,13.44,0.01,0.00
15min,AgWx,beryljct,423,14AUG2020:20:00:00,81.3,12.99,72.4,72.7,77.1,79.7,72.0,30,48,20,1.095,41.8,53.3,34.9,1.929,2.1,104,58,2.9,0.00020,0.00035,78.8,71.3,9,48,.,.,13.44,0.00,0.00
15min,AgWx,beryljct,423,14AUG2020:20:15:00,79.8,12.98,80.8,78.7,77.6,80.4,72.8,25,41,19,0.681,39.1,48.5,34.0,0.877,1.7,212,6.9,2.6,0.00004,0.00012,78.3,71.4,9,28,.,.,13.44,0.00,0.00
15min,AgWx,beryljct,423,14AUG2020:20:30:00,78.2,12.97,78.7,78.5,78.4,79.7,76.8,22,35,17,0.567,36.5,47.0,30.1,2.389,1.8,38,34,3.5,-0.00002,0.00004,77.9,71.6,9,5,.,.,13.44,0.00,0.00
15min,AgWx,beryljct,423,14AUG2020:20:45:00,77.1,12.97,77.1,77.2,77.6,78.8,76.5,17,19,15,0.511,29.4,31.8,26.9,1.293,1.6,34,5.2,2.9,-0.00009,-0.00006,77.4,71.7,9,1,.,.,13.44,0.00,0.00
15min,AgWx,beryljct,423,14AUG2020:21:00:00,75.7,12.96,72.4,73.0,75.1,77.4,73.0,20,23,16,0.634,31.8,33.7,28.4,0.833,0.9,3.1,11,2.2,-0.00029,-0.00040,77.0,71.8,9,0,.,.,13.44,0.00,0.00
15min,AgWx,beryljct,423,14AUG2020:21:15:00,74.0,12.95,75.0,74.1,74.5,75.6,72.7,19,25,16,0.528,29.1,36.1,25.9,1.951,0.7,301,7.8,2.0,-0.00034,-0.00049,76.5,71.9,9,0,.,.,13.45,0.00,0.00
15min,AgWx,beryljct,423,14AUG2020:21:30:00,72.3,12.95,71.0,66.6,70.5,75.0,64.6,29,46,16,0.796,35.2,43.4,26.0,3.486,2.2,250,41,3.7,0.00004,0.00012,76.0,71.9,9,0,.,.,13.45,0.00,0.00
15min,AgWx,beryljct,423,14AUG2020:21:45:00,70.7,12.95,74.1,69.6,69.7,71.6,66.7,27,34,22,0.677,34.1,38.6,30.0,0.022,1.6,182,11,3.1,-0.00010,-0.00009,75.6,72.0,9,0,.,.,13.45,0.00,0.00
15min,AgWx,beryljct,423,14AUG2020:22:00:00,69.8,12.94,74.2,73.7,72.4,75.1,69.3,22,30,16,0.499,30.8,38.3,25.5,1.841,1.0,228,20,1.8,-0.00026,-0.00036,75.1,72.0,9,0,.,.,13.45,0.00,0.00
15min,AgWx,beryljct,423,14AUG2020:22:15:00,69.3,12.93,67.8,67.7,71.5,74.0,67.7,23,32,17,0.679,31.0,39.6,26.4,3.99,3.4,180,8.6,5.8,0.00028,0.00047,74.6,72.0,9,0,.,.,13.45,0.00,0.00
15min,AgWx,beryljct,423,14AUG2020:22:30:00,68.6,12.92,75.9,73.3,68.8,73.3,65.9,25,33,15,0.412,31.0,37.1,22.5,3.157,2.8,194,9.7,3.9,0.00015,0.00028,74.2,72.1,9,0,.,.,13.45,0.00,0.00
15min,AgWx,beryljct,423,14AUG2020:22:45:00,68.3,12.91,64.0,63.7,68.5,74.1,63.6,30,46,14,0.897,35.0,42.6,22.5,0.855,2.3,214,16,3.9,0.00005,0.00014,73.8,72.0,10,0,.,.,13.45,0.00,0.00
15min,AgWx,beryljct,423,14AUG2020:23:00:00,67.2,12.91,59.7,59.4,62.1,64.2,58.4,49,58,44,0.798,42.7,44.3,38.8,3.354,2.0,307,26,4.4,-0.00007,-0.00006,73.4,72.0,9,0,.,.,13.45,0.00,0.00
15min,AgWx,beryljct,423,14AUG2020:23:15:00,65.8,12.9,59.7,61.0,61.4,64.8,58.7,35,48,23,0.761,32.8,39.1,25.6,2.346,3.6,312,8.3,4.9,0.00020,0.00032,73.0,72.0,9,0,.,.,13.45,0.00,0.00
15min,AgWx,beryljct,423,14AUG2020:23:30:00,64.7,12.88,63.3,62.7,61.9,63.7,59.8,37,47,30,0.683,35.4,39.7,29.4,1.622,2.0,226,82,3.1,-0.00004,-0.00002,72.6,72.0,9,0,.,.,13.45,0.00,0.00
15min,AgWx,beryljct,423,14AUG2020:23:45:00,63.6,12.87,65.9,62.2,60.4,62.9,58.5,45,55,33,0.690,38.7,42.5,33.0,4.209,1.9,270,17,4.2,-0.00008,-0.00008,72.2,71.9,10,0,.,.,13.45,0.00,0.00
15min,AgWx,beryljct,423,15AUG2020:00:00:00,63.0,12.87,62.3,62.2,63.2,66.7,60.0,33,50,21,0.687,33.4,41.4,25.8,1.841,2.4,310,6.8,3.9,0.00005,0.00013,71.8,71.9,9,0,.,.,13.46,0.01,0.00
15min,AgWx,beryljct,423,15AUG2020:00:15:00,62.8,12.86,60.7,60.7,62.9,65.3,60.5,30,37,22,0.645,30.7,34.0,25.4,3.661,3.4,323,6.1,4.3,0.00019,0.00032,71.4,71.8,9,0,.,.,13.45,0.00,0.00
15min,AgWx,beryljct,423,15AUG2020:00:30:00,62.4,12.85,66.1,66.0,62.8,66.4,58.2,34,50,25,0.593,33.4,39.6,29.6,3.617,2.4,287,17,4.0,0.00004,0.00011,71.1,71.8,9,0,.,.,13.46,0.00,0.00
15min,AgWx,bigpiney,439,14AUG2020:00:00:00,52.6,12.7,47.0,47.5,49.6,50.7,47.5,45,50,44,0.554,29.4,29.6,29.1,4.647,5.7,241,9.6,7.5,0.00023,0.00032,53.0,51.6,47,0,0,0.0,8.18,0.00,0.00
15min,AgWx,bigpiney,439,14AUG2020:00:15:00,51.8,12.7,46.0,47.2,48.4,50.8,46.3,48,53,43,0.554,29.6,30.2,29.1,5.239,4.3,248,22,6.7,0.00012,0.00018,52.9,51.6,47,0,0,0.0,8.18,0.00,0.00
15min,AgWx,bigpiney,439,14AUG2020:00:30:00,51.1,12.69,47.5,50.1,48.2,51.0,44.8,48,55,40,0.530,29.2,30.3,27.5,1.841,3.4,271,31,7.5,0.00006,0.00011,52.9,51.6,47,0,0,0.0,8.18,0.00,0.00
15min,AgWx,bigpiney,439,14AUG2020:00:45:00,50.6,12.68,50.2,54.4,53.3,56.7,48.9,37,45,31,0.506,27.3,28.7,26.2,4.406,3.7,250,19,5.3,0.00014,0.00023,52.8,51.6,47,0,0,0.0,8.18,0.00,0.00
15min,AgWx,bigpiney,439,14AUG2020:01:00:00,50.2,12.67,62.0,60.6,51.7,60.6,44.8,40,53,26,0.474,27.4,28.9,25.7,2.126,4.4,265,36,7.8,0.00020,0.00030,52.8,51.6,47,0,0,0.0,8.18,0.00,0.00
15min,AgWx,bigpiney,439,14AUG2020:01:15:00,49.8,12.66,49.4,47.9,50.7,61.3,45.0,41,52,26,0.523,27.4,28.5,25.8,4.538,3.1,227,38,7.9,0.00007,0.00014,52.7,51.6,47,0,0,0.0,8.18,0.00,0.00
15min,AgWx,bigpiney,439,14AUG2020:01:30:00,49.4,12.66,44.6,43.2,48.0,52.8,42.9,46,56,37,0.533,28.0,28.7,26.5,4.889,3.6,225,65,10.0,0.00008,0.00014,52.7,51.6,47,0,0,0.0,8.18,0.00,0.00
15min,AgWx,bigpiney,439,14AUG2020:01:45:00,49.0,12.65,46.9,50.7,48.2,51.6,43.4,45,56,38,0.493,27.5,28.6,26.4,3.639,3.1,246,36,7.9,0.00005,0.00010,52.6,51.6,47,0,0,0.0,8.18,0.00,0.00
15min,AgWx,bigpiney,439,14AUG2020:02:00:00,48.3,12.64,47.6,46.8,47.0,51.6,43.9,46,53,36,0.513,27.2,28.0,25.8,6.072,5.0,221,7.1,6.9,0.00017,0.00025,52.6,51.6,47,0,0,0.0,8.18,0.00,0.00
15min,AgWx,bigpiney,439,14AUG2020:02:15:00,47.3,12.64,42.6,41.3,41.9,47.2,40.0,58,63,45,0.529,28.1,29.0,27.0,7.87,6.3,222,7.8,8.3,0.00013,0.00019,52.5,51.6,47,0,0,0.0,8.18,0.00,0.00
15min,AgWx,bigpiney,439,14AUG2020:02:30:00,46.5,12.63,47.8,45.5,44.7,46.5,41.5,53,60,48,0.538,28.5,29.2,27.8,4.428,5.0,237,53,8.5,0.00012,0.00018,52.5,51.6,47,0,0,0.0,8.18,0.00,0.00
15min,AgWx,bigpiney,439,14AUG2020:02:45:00,46.3,12.63,52.8,52.2,48.3,52.2,45.7,42,51,35,0.464,26.3,28.8,25.2,4.889,3.9,331,37,6.4,0.00012,0.00019,52.4,51.6,47,0,0,0.0,8.18,0.00,0.00
15min,AgWx,bigpiney,439,14AUG2020:03:00:00,46.5,12.62,51.1,51.5,51.1,55.2,47.2,37,43,31,0.470,25.6,26.3,24.9,2.631,3.1,239,42,8.6,0.00008,0.00016,52.4,51.6,47,0,0,0.0,8.18,0.00,0.00
15min,AgWx,bigpiney,439,14AUG2020:03:15:00,46.4,12.61,42.1,44.2,46.9,52.5,43.1,46,54,35,0.518,27.1,28.2,25.4,5.459,4.3,234,19,6.5,0.00013,0.00020,52.3,51.6,47,0,0,0.0,8.18,0.00,0.00
15min,AgWx,bigpiney,439,14AUG2020:03:30:00,46.1,12.58,48.9,51.3,48.6,55.2,43.4,45,56,33,0.502,27.6,28.8,26.4,3.157,5.5,271,13,8.0,0.00022,0.00032,52.2,51.5,47,0,0,0.0,8.18,0.00,0.00
15min,AgWx,bigpiney,439,14AUG2020:03:45:00,46.2,12.59,42.2,41.8,47.1,51.1,41.7,48,58,39,0.518,28.0,29.1,26.8,4.757,4.7,246,88,7.4,0.00015,0.00022,52.2,51.5,47,0,0,0.0,8.18,0.00,0.00
15min,AgWx,bigpiney,439,14AUG2020:04:00:00,45.9,12.57,48.9,47.6,43.9,47.7,39.6,54,62,46,0.518,28.0,28.6,27.5,2.455,2.8,44,53,4.9,-0.00002,0.00000,52.1,51.5,47,0,0,0.0,8.18,0.00,0.00
15min,AgWx,bigpiney,439,14AUG2020:04:15:00,45.3,12.56,44.5,43.2,45.3,48.4,42.7,50,56,45,0.528,27.9,28.6,26.9,4.691,2.7,222,53,6.3,-0.00002,0.00001,52.1,51.6,47,0,0,0.0,8.18,0.00,0.00
15min,AgWx,bigpiney,439,14AUG2020:04:30:00,44.7,12.54,50.5,51.3,46.3,53.7,41.5,49,59,35,0.496,28.2,29.0,26.8,1.25,4.8,253,21,9.2,0.00014,0.00021,52.0,51.5,47,0,0,0.0,8.18,0.00,0.00
15min,AgWx,bigpiney,439,14AUG2020:04:45:00,44.5,12.54,39.5,42.1,43.7,51.5,40.4,55,64,39,0.539,28.5,29.6,27.0,5.196,4.9,204,29,8.9,0.00010,0.00016,52.0,51.5,47,0,0,0.0,8.18,0.00,0.00
15min,AgWx,bigpiney,439,14AUG2020:05:00:00,44.1,12.53,41.0,41.1,41.4,43.9,39.3,63,67,58,0.557,29.7,30.4,28.7,4.253,5.5,198,14,8.1,0.00007,0.00011,51.9,51.5,47,0,0,0.0,8.18,0.00,0.00
15min,AgWx,bigpiney,439,14AUG2020:05:15:00,43.7,12.52,41.7,41.1,40.9,42.1,39.7,66,70,62,0.574,30.3,30.8,29.8,4.976,6.1,211,10,8.2,0.00007,0.00011,51.8,51.5,47,0,0,0.0,8.18,0.00,0.00
15min,AgWx,bigpiney,439,14AUG2020:05:30:00,43.5,12.51,41.1,42.1,41.9,43.5,41.1,64,66,61,0.579,30.7,31.2,30.4,6.467,6.0,220,14,9.1,0.00008,0.00012,51.7,51.4,47,0,0,0.0,8.18,0.00,0.00
15min,AgWx,bigpiney,439,14AUG2020:05:45:00,43.4,12.5,40.6,40.2,41.1,42.1,39.9,66,69,63,0.581,30.7,31.1,30.3,6.248,5.8,233,12,8.1,0.00006,0.00010,51.7,51.4,47,0,0,0.0,8.18,0.00,0.00
15min,AgWx,bigpiney,439,14AUG2020:06:00:00,43.2,12.47,41.6,42.4,42.3,44.8,40.3,64,69,58,0.577,31.0,31.3,30.6,5.371,5.7,239,15,8.1,0.00008,0.00012,51.6,51.4,47,0,0,0.0,8.18,0.00,0.00
15min,AgWx,bigpiney,439,14AUG2020:06:15:00,43.3,12.47,44.0,43.4,43.7,46.8,40.6,60,67,52,0.580,30.5,30.9,30.0,2.609,3.2,262,43,5.5,-0.00001,0.00001,51.6,51.4,47,1,0,0.0,8.18,0.00,0.00
15min,AgWx,bigpiney,439,14AUG2020:06:30:00,43.4,12.47,46.1,44.5,44.1,46.7,40.9,58,65,53,0.559,30.2,30.9,29.5,2.477,3.3,288,54,6.4,0.00001,0.00003,51.5,51.4,47,3,0,0.0,8.18,0.00,0.00
15min,AgWx,bigpiney,439,14AUG2020:06:45:00,43.5,12.49,43.0,42.2,43.2,46.1,39.4,59,66,54,0.559,29.8,30.8,28.4,1.403,2.7,254,66,5.2,-0.00021,-0.00007,51.5,51.4,47,18,0,0.0,8.18,0.00,0.00
15min,AgWx,bigpiney,439,14AUG2020:07:00:00,43.6,12.51,46.9,46.7,42.9,46.7,40.9,58,62,51,0.549,29.0,29.8,28.4,2.981,1.6,269,38,4.0,-0.00017,-0.00008,51.4,51.3,47,47,0,0.0,8.18,0.00,0.00
15min,AgWx,bigpiney,439,14AUG2020:07:15:00,43.7,12.53,43.6,43.5,43.6,46.7,42.2,58,62,50,0.568,29.6,30.2,29.0,2.696,2.7,338,52,6.8,0.00011,0.00028,51.3,51.3,47,83,0,0.0,8.18,0.00,0.00
15min,AgWx,bigpiney,439,14AUG2020:07:30:00,44.4,12.55,45.3,45.2,43.7,45.2,42.5,61,65,58,0.603,31.2,33.3,29.8,3.683,2.9,40,35,5.6,0.00031,0.00049,51.3,51.3,47,123,0,0.0,8.18,0.00,0.00